CRYOSAT 2               
1 36508U 10013A   19266.14398160 -.00000004  00000-0 -16603-5 0  9990
2 36508  92.0280  42.6660 0009006  55.9134 304.2927 14.52172217501310
SL-24 R/B               
1 36509U 10013B   19265.94191390  .00000010  00000-0  56441-5 0  9993
2 36509  91.9190 286.5441 0273150 297.7806  59.5919 13.93396877480940
SL-24 DEB               
1 36510U 10013C   19266.52100481  .00000199  00000-0  38136-4 0  9999
2 36510  92.0301  55.8960 0022481 307.9586  51.9596 14.63049815504230